          19 12  20 41.52  -35 14.3   7.394  8.301    10.2 / 271  17.7   23 1.00

          20 12  20 40.69  -35 14.2   7.396  8.296    10.2 / 271  17.7   37  .99

          21 12  20 39.86  -35 14.0   7.399  8.292    10.1 / 272  17.7   51  .95

          22 12  20 39.03  -35 13.7   7.401  8.287    10.1 / 272  17.7   66  .89

          23 12  20 38.21  -35 13.3   7.404  8.282    10.0 / 272  17.7   80  .81

          24 12  20 37.39  -35 12.9   7.407  8.277    10.0 / 273  17.7   93  .72

          25 12  20 36.58  -35 12.4   7.411  8.272     9.9 / 273  17.7  106  .62

          26 12  20 35.78  -35 11.9   7.415  8.267     9.8 / 274  17.7  119  .51

          27 12  20 34.98  -35 11.2   7.419  8.263     9.8 / 274  17.7  131  .41

          28 12  20 34.18  -35 10.5   7.423  8.258     9.7 / 274  17.7  143  .32

          29 12  20 33.40  -35 09.8   7.428  8.253     9.6 / 275  17.7  155  .23

          30 12  20 32.61  -35 09.0   7.433  8.248     9.5 / 275  17.7  165  .16

          31 12  20 31.84  -35 08.1   7.439  8.243     9.5 / 276  17.7  169  .10

     Sept. 1 12  20 31.07  -35 07.1   7.444  8.239     9.4 / 276  17.7  163  .05

           2 12  20 30.31  -35 06.1   7.450  8.234     9.3 / 277  17.7  153  .02

           3 12  20 29.56  -35 05.0   7.456  8.229     9.2 / 277  17.7  142  .00

           4 12  20 28.82  -35 03.8   7.463  8.224     9.1 / 278  17.7  130  .01

           5 12  20 28.08  -35 02.6   7.469  8.219     9.0 / 278  17.7  118  .03

           6 12  20 27.35  -35 01.4   7.476  8.215     8.9 / 279  17.7  106  .07

           7 12  20 26.63  -35 00.0   7.483  8.210     8.8 / 279  17.7   93  .13

           8 12  20 25.92  -34 58.6   7.491  8.205     8.7 / 280  17.7   81  .20

           9 12  20 25.22  -34 57.2   7.498  8.200     8.6 / 280  17.7   68  .29

          10 12  20 24.53  -34 55.6   7.506  8.195     8.5 / 281  17.7   55  .39

NAKANO

         **** Don't distribute anyone except personal use only ****

                (C) Copyright 2005 OAA/ComputingSection

write mail from CFAD0::NAKANO on 2005-08-10 05:45:29(JST).

 





◎C/2005 L3の軌道と予報位置です



 那賀川の堀寿夫氏と前野拓氏から8月4日の観測が報告されました.彼らの

CCD全光度は17.3等でした.なお,これは,我が国で初めての観測です.



    C/2005 L3 (McNaught)                                                  

T 2008 Jan. 14.86675 TT                                 Nakano

q   5.5976588            (2000.0)            P               Q

                   Peri.   46.90113     -0.30620507     -0.72531379

                   Node   288.68645     -0.94582685     +0.30523185

e   1.0            Incl.  139.39199     +0.10793530     +0.61705221

From 68 observations 2005 June 3-Aug. 6.

Residuals in seconds of arc 

2005/                     050605 474  0.1+  0.1+    050715 415  0.1-  0.1-  

050603 E12  0.2-  0.3+    050605 E12  0.0   0.3-    050715 415  0.4-  0.3+  

050603 E12  0.2+  0.7+    050605 474  0.1-  0.3-    050725 E12  0.1-  0.5+  

050603 E12  0.0   0.0     050605 E12  0.0   0.1-    050725 E12  0.2-  0.2+  

050603 E12  0.4-  0.1+    050605 E12  0.0   0.1-    050725 E12  0.4+  0.1-  

050603 E12  0.2+  0.1+    050605 E12  0.1+  0.2-    050725 E12  0.1-  0.3+  

050603 E12  0.3+  0.2-    050609 E12  0.2+  0.1-    050728 415  0.1+  0.1-  

050603 E12  0.0   0.6+    050609 415  0.5-  0.5+    050728 415  0.0   0.1-  

050603 E12  0.0   0.0     050618 J76  0.6-  0.7+    050730 415  0.2-  0.2-  

050603 E12  0.1+  0.2-    050618 J76  0.6-  0.1-    050730 415  0.7-  0.2-  

050603 E12  0.2-  0.7-    050618 J76  0.4-  0.1+    050802 415  0.1+  0.1+  

050603 E12  0.1-  0.5-    050702 415  0.0   0.0     050802 415  0.0   0.0   

050604 474  0.0   0.1-    050702 415  0.1+  0.2-    050802 415  0.3+  0.3-  

050604 474  0.4-  0.2+    050703 A02 (5.9-  1.7+)   050802 415  0.3+  0.1-  

050604 E12  0.5-  0.4-    050703 A02  0.3-  0.4+    050804 415  0.0   0.5+  

050604 E12  0.2-  0.3+    050703 A02  1.3+  0.6+    050804 D74  1.0-  0.4-  

050604 474  0.2+  0.1-    050703 413  0.3+  0.4-    050804 D74  0.0   0.3-  

050604 E12  1.6+  0.1-    050703 413  0.3+  0.5-    050805 415  0.5+  0.0   

050604 E12  0.2+  0.5-    050703 413  0.1+  0.3-    050805 415  0.4+  0.0   

050604 428  0.3-  0.0     050705 E12  0.1+  0.6-    050805 415  0.3-  0.2+  

050604 428  0.3-  0.1+    050705 E12  0.0   0.4+    050806 415  0.0   0.2-  

050604 428  0.1+  0.2+    050705 E12  0.0   0.0     050806 415  0.2+  0.2+  

050604 428  0.4+  0.2+    050705 E12  0.0   0.3+                            

050605 474  0.3+  0.0     050715 415  0.1-  0.2-                            

 

Date/        TT  R.A.(2000) Decl.     Delta   r     Daily motion  Mag.  Moon Age

              h    h  m       。  ,                      ,  / PA 。  m1      。

2005 Aug. 10 12  20 49.17  -35 12.5   7.390  8.344    10.5 / 267  17.8  107  .24

          11 12  20 48.31  -35 13.0   7.389  8.339    10.5 / 268  17.8   95  .34

          12 12  20 47.45  -35 13.4   7.389  8.335    10.5 / 268  17.7   82  .44

          13 12  20 46.60  -35 13.7   7.388  8.330    10.5 / 268  17.7   69  .54

          14 12  20 45.74  -35 14.0   7.389  8.325    10.4 / 269  17.7   56  .65

          15 12  20 44.89  -35 14.2   7.389  8.320    10.4 / 269  17.7   42  .75

          16 12  20 44.05  -35 14.3   7.390  8.315    10.4 / 270  17.7   28  .85

          17 12  20 43.20  -35 14.4   7.391  8.310    10.3 / 270  17.7   16  .92

          18 12  20 42.36  -35 14.4   7.392  8.306    10.3 / 270  17.7   12  .97

          19 12  20 41.52  -35 14.3   7.394  8.301    10.2 / 271  17.7   23 1.00

          20 12  20 40.69  -35 14.2   7.396  8.296    10.2 / 271  17.7   37  .99

          21 12  20 39.86  -35 14.0   7.398  8.291    10.1 / 272  17.7   51  .95

          22 12  20 39.03  -35 13.7   7.401  8.286    10.1 / 272  17.7   66  .89

          23 12  20 38.21  -35 13.3   7.404  8.282    10.0 / 272  17.7   80  .81

          24 12  20 37.39  -35 12.9   7.407  8.277    10.0 / 273  17.7   93  .72

          25 12  20 36.58  -35 12.4   7.411  8.272     9.9 / 273  17.7  107  .62

          26 12  20 35.78  -35 11.9   7.415  8.267     9.8 / 274  17.7  119  .51

          27 12  20 34.98  -35 11.2   7.419  8.262     9.8 / 274  17.7  132  .41

          28 12  20 34.18  -35 10.5   7.423  8.258     9.7 / 274  17.7  143  .32

          29 12  20 33.40  -35 09.8   7.428  8.253     9.6 / 275  17.7  155  .23

          30 12  20 32.61  -35 09.0   7.433  8.248     9.5 / 275  17.7  165  .16

          31 12  20 31.84  -35 08.1   7.438  8.243     9.5 / 276  17.7  169  .10

     Sept. 1 12  20 31.07  -35 07.1   7.444  8.238     9.4 / 276  17.7  163  .05

           2 12  20 30.31  -35 06.1   7.450  8.234     9.3 / 277  17.7  153  .02

           3 12  20 29.56  -35 05.0   7.456  8.229     9.2 / 277  17.7  142  .00

           4 12  20 28.82  -35 03.8   7.462  8.224     9.1 / 278  17.7  130  .01

           5 12  20 28.08  -35 02.6   7.469  8.219     9.0 / 278  17.7  118  .03

           6 12  20 27.35  -35 01.4   7.476  8.214     8.9 / 279  17.7  106  .07

           7 12  20 26.63  -35 00.0   7.483  8.210     8.8 / 279  17.7   93  .13

           8 12  20 25.92  -34 58.6   7.490  8.205     8.7 / 280  17.7   81  .20

           9 12  20 25.22  -34 57.2   7.498  8.200     8.6 / 280  17.7   68  .29

          10 12  20 24.53  -34 55.6   7.506  8.195     8.5 / 281  17.7   55  .39

NAKANO

         **** Don't distribute anyone except personal use only ****

                (C) Copyright 2005 OAA/ComputingSection

write mail from CFAD0::NAKANO on 2005-08-10 02:10:19(JST).

 



    C/2005 L3 (McNaught)                                                  

T 2008 Jan. 14.69494 TT                                 Nakano

q   5.5964763            (2000.0)            P               Q

                   Peri.   46.91403     -0.30615134     -0.72523389

                   Node   288.69494     -0.94581672     +0.30533036

e   1.0            Incl.  139.37992     +0.10817618     +0.61709738

From 33 observations 2005 June 3-18.



NAKANO

         **** Don't distribute anyone except personal use only ****

                (C) Copyright 2005 OAA/ComputingSection

write mail from CFAD0::NAKANO on 2005-07-03 02:21:28(JST).





戻ります。